Ban Ang Kep Nam, Thailand

6:24 AM ICT on February 20, 2017 (GMT +0700)
Krabi

Weather History for VTSG - February, 2014

Change the Weather History Date:

Sunday, February 2, 2014

  Actual Average (VTSP) Record (VTSP)
Temperature  
Mean Temperature 80 °F -  
Max Temperature 95 °F 91 °F 100 °F (1997)
Min Temperature 64 °F 75 °F 67 °F (2014)
Cooling Degree Days 14    
Growing Degree Days 30 (Base 50)    
Moisture  
Dew Point 62 °F    
Average Humidity 64    
Maximum Humidity 94    
Minimum Humidity 23    
Precipitation  
Precipitation 0.00 in - - ()
Sea Level Pressure  
Sea Level Pressure 29.86 in    
Wind  
Wind Speed 4 mph ()    
Max Wind Speed 12 mph    
Max Gust Speed -    
Visibility 4.8 miles    
Events      
Averages and records for this station are not official NWS values.
T = Trace of Precipitation, MM = Missing Value Source: Averaged Metar Reports

Daily Weather History Graph

Daily Weather History Graph

Search for Another Location

Airport or City:

Trip Planner

Search our weather history database for the weather conditions in past years. The results will help you decide how hot, cold, wet, or windy it might be!

Date:

Astronomy

Feb. 02, 2014 Rise Set
Actual Time 6:44 AM ICT 6:31 PM ICT
Civil Twilight 6:22 AM ICT 6:53 PM ICT
Nautical Twilight 5:57 AM ICT 7:18 PM ICT
Astronomical Twilight 5:31 AM ICT 7:43 PM ICT
Moon 8:30 AM ICT (2/2) 8:53 PM ICT (2/2)
Length of Visible Light 12h 30m
Length of Day
11h 47m
Waxing Crescent, 8% of the Moon is Illuminated
Feb 2
Waxing Crescent
Feb 7
First Quarter
Feb 15
Full
Feb 23
Last Quarter
Mar 1
New

Hourly Weather History & Observations

Time (ICT) Temp. Heat Index Dew Point Humidity Pressure Visibility Wind Dir Wind Speed Gust Speed Precip Events Conditions
12:00 AM 68.0 °F - 64.4 °F 88% 29.92 in 5.0 mi ENE 3.5 mph - N/A   Unknown
1:00 AM 66.2 °F - 62.6 °F 88% 29.92 in 5.0 mi NE 5.8 mph - N/A   Unknown
2:00 AM 66.2 °F - 64.4 °F 94% 29.89 in 5.0 mi ENE 3.5 mph - N/A   Unknown
3:00 AM 66.2 °F - 62.6 °F 88% 29.89 in 4.3 mi Calm Calm - N/A   Unknown
4:00 AM 64.4 °F - 62.6 °F 94% 29.86 in 4.3 mi ENE 3.5 mph - N/A   Unknown
6:00 AM 66.2 °F - 64.4 °F 94% 29.86 in 4.3 mi NNE 4.6 mph - N/A   Unknown
7:00 AM 66.2 °F - 64.4 °F 94% 29.89 in 2.5 mi NNE 4.6 mph - N/A   Mist
8:00 AM 69.8 °F - 68.0 °F 94% 29.92 in 3.7 mi NW 4.6 mph - N/A   Unknown
9:00 AM 77.0 °F - 68.0 °F 74% 29.92 in 5.6 mi NE 4.6 mph - N/A   Partly Cloudy
10:00 AM 82.4 °F 84.6 °F 66.2 °F 58% 29.92 in 6.2 mi NE 5.8 mph - N/A   Partly Cloudy
11:00 AM 89.6 °F 89.5 °F 60.8 °F 38% 29.92 in - North 5.8 mph - N/A   Clear
12:00 PM 89.6 °F 88.1 °F 57.2 °F 33% 29.89 in - NNW 6.9 mph - N/A   Clear
1:00 PM 95.0 °F - 51.8 °F 23% 29.86 in - WNW 5.8 mph - N/A   Clear
2:00 PM 93.2 °F - 51.8 °F 24% 29.80 in - SSW 11.5 mph - N/A   Clear
3:00 PM 93.2 °F 91.9 °F 57.2 °F 30% 29.77 in - SSW 9.2 mph - N/A   Clear
4:00 PM 91.4 °F 89.1 °F 53.6 °F 28% 29.77 in - SSW 9.2 mph - N/A   Clear
5:00 PM 91.4 °F 89.4 °F 55.4 °F 29% 29.77 in - SSW 8.1 mph - N/A   Clear
6:00 PM 86.0 °F 86.1 °F 60.8 °F 43% 29.77 in - SSW 6.9 mph - N/A   Clear
7:00 PM 80.6 °F 82.3 °F 64.4 °F 58% 29.80 in - SSW 4.6 mph - N/A   Clear
8:00 PM 77.0 °F - 68.0 °F 74% 29.80 in 6.2 mi SSW 5.8 mph - N/A   Unknown
9:00 PM 73.4 °F - 68.0 °F 83% 29.83 in 5.0 mi Variable 2.3 mph - N/A   Unknown
10:00 PM 69.8 °F - 66.2 °F 88% 29.86 in 5.0 mi Variable 2.3 mph - N/A   Unknown